FW6321 Weather Reports


Display with metric or nautical units.
time (UTC)temp
F
wind
direction
speed
MPH
gust
MPH
rain 1hr
in
rain 24hr
in
rain mn
in
humidity
%
barometer
mb
20260505201031 51 352 8.0 16.0 0.00 0.00 0.00 81 1011.3
20260505195946 51 13 9.0 16.0 0.00 0.00 0.00 81 1011.2
20260505195445 52 330 7.0 16.0 0.00 0.00 0.00 81 1011.2
20260505195018 52 335 7.0 15.0 0.00 0.00 0.00 81 1011.1
20260505194041 52 6 9.0 17.0 0.00 0.00 0.00 81 1011.1
20260505192943 52 7 10.0 20.0 0.00 0.00 0.00 81 1011.0
20260505192443 52 335 10.0 16.0 0.00 0.00 0.00 80 1010.8
20260505191942 52 330 10.0 18.0 0.00 0.00 0.00 80 1010.8
20260505191444 53 6 9.0 18.0 0.00 0.00 0.00 80 1010.8
20260505190940 53 12 8.0 15.0 0.00 0.00 0.00 81 1010.7
20260505190514 53 6 7.0 16.0 0.00 0.00 0.00 81 1010.7
20260505185439 53 349 8.0 15.0 0.00 0.00 0.00 80 1010.7
20260505185009 53 357 9.0 17.0 0.00 0.00 0.00 80 1010.6
20260505183942 53 347 9.0 17.0 0.00 0.00 0.00 79 1010.5
20260505183440 54 0 9.0 17.0 0.00 0.00 0.00 79 1010.5
20260505182937 54 357 9.0 17.0 0.00 0.00 0.00 79 1010.6
20260505182437 54 349 8.0 17.0 0.00 0.00 0.00 79 1010.5
20260505181938 54 6 9.0 18.0 0.00 0.00 0.00 78 1010.4
20260505181436 54 10 9.0 19.0 0.00 0.00 0.00 78 1010.4
20260505180936 54 350 9.0 19.0 0.00 0.00 0.00 77 1010.3
20260505180450 54 15 10.0 23.0 0.00 0.00 0.00 77 1010.3
20260505175937 55 21 11.0 23.0 0.00 0.00 0.00 76 1010.3
20260505175537 55 335 9.0 19.0 0.00 0.00 0.00 77 1010.3
20260505173938 55 358 10.0 20.0 0.00 0.00 0.00 76 1010.3
20260505173544 55 330 10.0 20.0 0.00 0.00 0.00 77 1010.3
20260505171934 56 325 10.0 20.0 0.00 0.00 0.00 77 1010.4
20260505171435 56 316 10.0 20.0 0.00 0.00 0.00 77 1010.4
20260505170933 56 301 11.0 19.0 0.00 0.00 0.00 77 1010.4
20260505170448 56 341 11.0 20.0 0.00 0.00 0.00 77 1010.4
20260505165937 56 339 11.0 20.0 0.00 0.00 0.00 76 1010.6
20260505165439 56 9 9.0 16.0 0.00 0.00 0.00 77 1010.5
20260505164935 56 354 9.0 18.0 0.00 0.00 0.00 77 1010.6
20260505164436 56 11 10.0 19.0 0.00 0.00 0.00 77 1010.6
20260505163937 56 354 10.0 21.0 0.00 0.00 0.00 78 1010.5
20260505163436 56 309 10.0 21.0 0.00 0.00 0.00 77 1010.6
20260505162934 57 3 9.0 18.0 0.00 0.00 0.00 77 1010.5
20260505162507 57 335 9.0 18.0 0.00 0.00 0.00 77 1010.6
20260505161436 57 4 8.0 14.0 0.00 0.00 0.00 77 1010.6
20260505161100 57 11 7.0 14.0 0.00 0.00 0.00 79 1010.6
20260505153012 57 302 9.0 18.0 0.00 0.01 0.00 79 1010.7
20260505151928 57 8 8.0 14.0 0.00 0.01 0.00 79 1010.8
20260505151458 57 2 8.0 16.0 0.00 0.02 0.00 79 1010.8
20260505150426 57 357 9.0 17.0 0.00 0.03 0.00 78 1010.8
20260505140422 58 300 7.0 15.0 0.00 0.05 0.00 79 1011.0
20260505124908 55 32 7.0 13.0 0.00 0.18 0.00 83 1011.8
20260505124409 56 0 6.0 10.0 0.00 0.18 0.00 83 1011.9
20260505123943 56 64 7.0 14.0 0.00 0.18 0.00 85 1011.8
20260505122908 56 22 7.0 11.0 0.00 0.18 0.00 84 1011.7
20260505122404 55 76 7.0 11.0 0.00 0.18 0.00 85 1011.8
20260505121906 55 14 7.0 12.0 0.00 0.18 0.00 86 1011.8
20260505121408 54 8 6.0 12.0 0.00 0.18 0.00 87 1011.9
20260505120909 54 19 6.0 11.0 0.00 0.18 0.00 87 1011.9
20260505120404 54 55 7.0 12.0 0.00 0.18 0.00 87 1011.8
20260505115904 54 58 8.0 14.0 0.00 0.18 0.00 88 1011.8
20260505115438 54 15 8.0 14.0 0.00 0.18 0.00 87 1011.8
20260505114403 54 23 7.0 14.0 0.00 0.18 0.00 88 1011.9
20260505113903 53 24 8.0 14.0 0.00 0.18 0.00 87 1012.1
20260505113502 53 317 6.0 14.0 0.00 0.18 0.00 88 1012.0
20260505113133 53 320 6.0 16.0 0.00 0.18 0.00 88 1012.1
20260505110410 53 319 7.0 14.0 0.00 0.18 0.00 89 1012.0
20260505101903 52 355 8.0 15.0 0.00 0.18 0.00 90 1012.4
20260505101407 52 10 7.0 14.0 0.00 0.18 0.00 90 1012.5
20260505100928 52 8 7.0 15.0 0.00 0.18 0.00 90 1012.5
20260505095905 52 7 7.0 13.0 0.00 0.18 0.00 90 1012.5
20260505095359 52 17 9.0 15.0 0.00 0.18 0.00 90 1012.6
20260505094901 52 30 9.0 15.0 0.00 0.18 0.00 90 1012.6
20260505094402 52 20 8.0 15.0 0.00 0.18 0.00 90 1012.6
20260505093901 52 340 8.0 17.0 0.00 0.18 0.00 90 1012.6
20260505093402 52 23 9.0 17.0 0.00 0.18 0.00 90 1012.6
20260505092948 52 16 7.0 15.0 0.00 0.18 0.00 90 1012.7
20260505091903 52 18 8.0 16.0 0.00 0.18 0.00 91 1012.8
20260505091430 51 5 9.0 16.0 0.00 0.18 0.00 91 1012.8
20260505090400 51 19 7.0 16.0 0.00 0.18 0.00 91 1012.9
20260505085858 51 13 7.0 13.0 0.00 0.18 0.00 92 1012.9
20260505085400 51 16 8.0 14.0 0.00 0.18 0.00 92 1012.9
20260505084858 51 49 8.0 15.0 0.00 0.18 0.00 92 1012.9
20260505084400 51 8 7.0 15.0 0.00 0.18 0.00 92 1012.8
20260505083858 51 6 6.0 13.0 0.00 0.18 0.00 93 1012.8
20260505083358 51 53 7.0 13.0 0.00 0.18 0.00 93 1012.7
20260505082900 51 4 8.0 15.0 0.00 0.18 0.00 94 1012.7
20260505082357 51 330 7.0 15.0 0.00 0.18 0.00 94 1012.7
20260505081933 51 10 8.0 14.0 0.00 0.18 0.00 94 1012.6
20260505080901 50 351 8.0 15.0 0.00 0.18 0.00 94 1012.6
20260505080356 50 20 7.0 13.0 0.00 0.18 0.00 94 1012.6
20260505075858 50 40 7.0 13.0 0.00 0.18 0.00 95 1012.6
20260505075355 50 345 8.0 14.0 0.00 0.18 0.00 95 1012.7
20260505074852 50 8 8.0 14.0 0.00 0.18 0.00 95 1012.6
20260505074429 50 345 9.0 15.0 0.00 0.18 0.00 95 1012.6
20260505073352 50 6 8.0 16.0 0.00 0.18 0.00 95 1012.7
20260505072854 50 6 8.0 16.0 0.00 0.18 0.00 95 1012.7
20260505072422 50 335 10.0 16.0 0.00 0.18 0.00 95 1012.7
20260505071354 50 9 8.0 16.0 0.00 0.18 0.00 95 1012.7
20260505070959 50 16 8.0 17.0 0.00 0.18 0.00 95 1012.6
20260505065350 50 4 8.0 16.0 0.00 0.18 0.00 96 1012.8
20260505064850 50 352 8.0 17.0 0.00 0.18 0.00 96 1012.8
20260505064350 50 9 8.0 17.0 0.00 0.18 0.00 96 1012.9
20260505063849 50 335 7.0 15.0 0.00 0.18 0.00 96 1012.9
20260505063352 50 2 6.0 15.0 0.00 0.18 0.00 96 1012.8
20260505062853 50 12 8.0 14.0 0.00 0.18 0.00 96 1012.9
20260505062348 50 341 9.0 15.0 0.00 0.18 0.00 96 1012.9
20260505061850 50 356 9.0 15.0 0.00 0.18 0.00 95 1012.9
20260505061349 50 5 8.0 13.0 0.00 0.18 0.00 95 1012.9
20260505060849 50 330 8.0 16.0 0.00 0.18 0.00 95 1013.0
20260505060507 50 1 8.0 16.0 0.00 0.18 0.00 95 1013.1
20260505054851 50 341 9.0 16.0 0.00 0.18 0.00 95 1013.2
20260505054347 50 354 9.0 15.0 0.00 0.18 0.00 95 1013.2
20260505053915 50 354 8.0 15.0 0.00 0.18 0.00 95 1013.1
20260505052843 50 0 8.0 17.0 0.00 0.18 0.00 95 1013.1
20260505052346 50 1 8.0 14.0 0.00 0.18 0.00 95 1013.1
20260505051842 50 20 7.0 13.0 0.00 0.18 0.00 95 1012.9
20260505051341 50 345 9.0 14.0 0.00 0.18 0.00 95 1013.0
20260505050842 50 25 9.0 14.0 0.00 0.18 0.00 95 1012.7
20260505050420 50 350 9.0 14.0 0.00 0.18 0.00 95 1012.8
20260505041339 51 16 6.0 11.0 0.00 0.18 0.00 94 1012.5
20260505040838 51 16 7.0 12.0 0.00 0.18 0.00 94 1012.6
20260505040337 51 335 7.0 13.0 0.00 0.18 0.00 94 1012.6
20260505035839 51 318 6.0 13.0 0.00 0.18 0.00 94 1012.6
20260505035341 51 31 7.0 14.0 0.00 0.18 0.00 94 1012.6
20260505034909 51 352 8.0 14.0 0.00 0.18 0.00 94 1012.6
20260505033837 51 10 6.0 11.0 0.00 0.18 0.00 94 1012.7
20260505033342 51 0 7.0 16.0 0.00 0.18 0.00 93 1012.7
20260505032843 51 353 7.0 16.0 0.00 0.18 0.00 93 1012.8
20260505032429 51 314 8.0 15.0 0.00 0.18 0.00 93 1012.9
20260505031342 51 18 6.0 13.0 0.00 0.18 0.00 93 1012.8
20260505030842 51 330 7.0 12.0 0.00 0.18 0.00 93 1012.8
20260505030346 51 325 8.0 13.0 0.00 0.18 0.00 93 1012.9
20260505025842 51 353 8.0 15.0 0.00 0.18 0.00 93 1012.9
20260505025337 51 315 7.0 15.0 0.00 0.18 0.00 93 1012.8
20260505024839 51 15 8.0 14.0 0.00 0.18 0.00 93 1012.9
20260505024336 51 335 7.0 14.0 0.00 0.18 0.00 93 1012.9
20260505023908 51 330 8.0 14.0 0.00 0.18 0.00 93 1013.1
20260505022839 51 345 9.0 14.0 0.00 0.18 0.00 93 1012.9
20260505022421 51 4 9.0 17.0 0.00 0.18 0.00 93 1012.9
20260505021335 51 344 7.0 14.0 0.00 0.18 0.00 93 1012.9
20260505020833 51 335 8.0 16.0 0.00 0.18 0.00 93 1013.0
20260505020333 51 339 8.0 16.0 0.00 0.18 0.00 93 1013.0
20260505015908 51 310 8.0 15.0 0.00 0.18 0.00 93 1013.0
20260505014846 51 5 7.0 17.0 0.00 0.18 0.00 93 1013.0
20260505014335 51 330 9.0 17.0 0.00 0.18 0.00 93 1013.0
20260505013832 51 340 11.0 17.0 0.00 0.18 0.00 93 1013.1
20260505013333 51 353 10.0 20.0 0.00 0.18 0.00 93 1013.1
20260505012834 52 330 10.0 20.0 0.00 0.18 0.00 93 1013.2
20260505012335 52 347 10.0 17.0 0.00 0.18 0.00 93 1013.1
20260505011840 52 330 10.0 17.0 0.00 0.18 0.00 93 1013.2
20260505011331 52 5 8.0 16.0 0.00 0.18 0.00 93 1013.2
20260505010832 52 358 8.0 18.0 0.00 0.18 0.00 93 1013.2
20260505010339 52 317 9.0 18.0 0.00 0.18 0.00 93 1013.3
20260505005832 52 335 9.0 19.0 0.00 0.18 0.00 93 1013.4
20260505005334 52 343 10.0 19.0 0.00 0.18 0.00 93 1013.4
20260505004836 53 335 9.0 15.0 0.00 0.18 0.00 93 1013.4
20260505004333 53 0 9.0 15.0 0.00 0.18 0.00 93 1013.4
20260505003831 53 341 8.0 15.0 0.00 0.18 0.00 93 1013.4
20260505003332 53 330 8.0 15.0 0.00 0.18 0.00 93 1013.4
20260505002833 53 356 9.0 17.0 0.00 0.18 0.00 93 1013.5
20260505002416 53 303 9.0 17.0 0.00 0.18 0.00 92 1013.5
20260505001406 53 4 9.0 18.0 0.00 0.18 0.00 93 1013.6
20260505000328 53 325 9.0 17.0 0.00 0.18 0.00 93 1013.6
20260504235825 53 325 9.0 17.0 0.00 0.18 0.00 93 1013.6
20260504235325 53 325 9.0 19.0 0.00 0.18 0.00 93 1013.6
20260504234915 53 341 9.0 19.0 0.00 0.18 0.00 93 1013.6
20260504233824 54 347 8.0 17.0 0.00 0.18 0.00 94 1013.7
20260504233326 54 300 7.0 15.0 0.00 0.18 0.00 94 1013.7
20260504232902 54 349 7.0 14.0 0.00 0.18 0.00 94 1013.7
20260504231825 54 347 8.0 15.0 0.00 0.18 0.00 94 1013.8
20260504231325 54 325 8.0 17.0 0.00 0.18 0.00 94 1013.9
20260504230825 54 8 9.0 17.0 0.00 0.18 0.00 94 1013.9
20260504230322 54 341 9.0 17.0 0.00 0.18 0.00 94 1013.8
20260504225823 54 325 9.0 17.0 0.00 0.18 0.00 94 1013.9
20260504225323 54 354 7.0 13.0 0.00 0.18 0.00 94 1013.9
20260504224822 54 339 6.0 11.0 0.00 0.18 0.00 94 1013.9
20260504224317 54 325 7.0 13.0 0.00 0.18 0.00 94 1013.9
20260504223819 55 342 7.0 13.0 0.00 0.18 0.00 94 1014.0
20260504223317 55 325 7.0 12.0 0.00 0.18 0.00 94 1014.0
20260504222816 55 316 7.0 14.0 0.00 0.18 0.00 94 1014.0
20260504222355 55 349 7.0 14.0 0.00 0.18 0.00 94 1014.0
20260504221316 55 320 8.0 13.0 0.00 0.18 0.00 94 1014.1
20260504220815 55 325 8.0 13.0 0.00 0.18 0.00 94 1014.1
20260504220351 55 346 7.0 12.0 0.00 0.18 0.00 94 1014.1
20260504215354 55 31 7.0 13.0 0.00 0.18 0.18 94 1014.1
20260504214316 55 325 7.0 16.0 0.00 0.18 0.18 93 1014.2
20260504213815 55 343 7.0 16.0 0.00 0.18 0.18 93 1014.2
20260504213318 56 345 7.0 13.0 0.00 0.18 0.18 93 1014.2
20260504212821 56 330 8.0 15.0 0.00 0.18 0.18 93 1014.3
20260504212318 56 318 8.0 15.0 0.00 0.18 0.18 93 1014.3
20260504211814 56 325 7.0 14.0 0.00 0.18 0.18 93 1014.3
20260504211316 56 344 8.0 14.0 0.00 0.18 0.18 93 1014.3
20260504210815 56 10 8.0 16.0 0.00 0.18 0.18 93 1014.4
20260504210315 56 325 8.0 16.0 0.00 0.18 0.18 93 1014.4
20260504205816 56 347 7.0 15.0 0.00 0.18 0.18 93 1014.3
20260504205318 56 64 7.0 15.0 0.00 0.18 0.18 93 1014.4
20260504204900 56 310 6.0 14.0 0.00 0.18 0.18 93 1014.4
20260504203812 56 325 7.0 14.0 0.00 0.18 0.18 92 1014.4
20260504203313 56 330 6.0 14.0 0.00 0.18 0.18 92 1014.4
20260504202811 56 335 6.0 14.0 0.00 0.18 0.18 92 1014.4
20260504202350 56 295 6.0 11.0 0.00 0.18 0.18 92 1014.3
20260504201436 56 6 7.0 15.0 0.00 0.18 0.18 92 1014.3